METEOSAT 6 AKM, 23118

Orbit data source: Space-Track

METEOSAT 6 AKM, 23118 is space debris in GEO originally from a launch on Sat, 20 Nov 1993 UTC launched from the French Guiana (FRGUI). Debris objects in space refer to the collection of defunct objects orbiting the Earth. Examples of debris include non-operational satellites, rocket bodies, and fragments generated from explosions, collisions, or faulty payload assembly.

Loading next visibility...
METEOSAT 6 AKM details
Identifier
23118, 1993-073E
Orbit
GEO
Last TLE update16 hours ago
Origin
Flag of ESAESA (ESA)
ManufacturerSEP
MissionSpacecraft
Bus & MotorMAGE, Unknown motor
Mass364 kg wet, ~71 kg dry
Launch date (UTC)
1993-11-20 (31 years ago)
Launch vehicleUnknown
Launch site
French Guiana (FRGUI)
Object type
Payload
Rocket body
Debris
Shape & HBRCyl + Cone, 1.12 m
Radar Cross Section0.910 m², Medium (>0.1 m² and < 1m²)

Expand to show TLE details & history

TLE from 16 hours ago
0 METEOSAT 6 AKM
1 23118U 93073E   24325.63181021 -.00000075  00000-0  00000-0 0  9998
2 23118  14.4680 351.4078 0065538  97.6885  93.3711  0.99978223 41477
Epoch: 2024-11-20T15:09Z
Definitive object data (Epoch: 2024-11-20T15:09:48.402Z)
Latitude-2.94151°
Longitude-104.72517°
Altitude35,888.266 km
Speed3.07 km/s
True Right ascension12h 11m 24s
True Declination-2° 56' 19"
Sunlit
Object was in daylight at TLE epoch
Visualization TLE readout
Latitude13.96977°
Longitude138.149°
Altitude35,611.74 km
Speed3.091 km/s
Apparent Right ascension04h 22m 05s
Apparent Declination9° 35' 15"
Sunlit
Object is in daylight
Visualization observer readout
Local Sidereal Time04:28:49
Azimuth183.282° SSW
Elevation59.634°
Doppler factor1
Orbital elements
Apogee altitude36,146.949 km
Perigee altitude35,593.177 km
Semi-major axis42,248.2 km
Eccentricity0.0065538
Inclination14.468°
RAAN351.4078°
Arg. of periapsis97.6885°
True anomaly94.12043°
Mean anomaly93.3711°
Eccentric anomaly93.7458°
Mean motion0.24994 °/min
BSTARUnknown
Orbital period1440.36 mins
Loading historical data...
23118 neighbors
Authenticating...
Loading maneuver chart data...
Loading historical data...
Loading historical data...
Loading historical data...
Loading historical data...
Loading historical data...
Loading historical data...
Loading historical data...

METEOSAT 6 AKM Visibility forecast

Observer location: undefined°, undefined

Span
Click to sort rows by Start time (UTC) header in descending order
Start Az.
Max El. time (UTC)
Max El. Az.
Max El.
End time (UTC)
End Az.
1440 mins2024-11-21 07:26:07.300Z183.28° SSW2024-11-21 08:27:07.300Z181.909° SSW40.96°2024-11-22 07:26:07.300Z185.629° SSW
|